Time,TemperatureF,DewpointF,PressureIn,WindDirection,WindDirectionDegrees,WindSpeedMPH,WindSpeedGustMPH,Humidity,HourlyPrecipIn,Conditions,Clouds,dailyrainin,SolarRadiationWatts/m^2,SoftwareType,DateUTC
2013-05-10 00:01:00,53.4,52.3,29.92,SW,219,0.0,0.0,96,0.00,,,0.00,0.0,meteohub,2013-05-10 04:01:00,
2013-05-10 00:02:00,53.2,52.2,29.92,SW,219,0.0,0.0,96,0.00,,,0.00,0.0,meteohub,2013-05-10 04:02:00,
2013-05-10 00:03:00,53.2,52.2,29.93,SW,219,0.0,0.0,96,0.00,,,0.00,0.0,meteohub,2013-05-10 04:03:00,
2013-05-10 00:08:00,53.2,52.2,29.92,SW,219,1.0,0.0,96,0.00,,,0.00,0.0,meteohub,2013-05-10 04:08:00,
2013-05-10 00:13:00,53.4,52.5,29.92,SW,219,0.0,1.0,97,0.00,,,0.00,0.0,meteohub,2013-05-10 04:13:00,
2013-05-10 00:18:00,53.4,52.5,29.92,SW,219,0.0,2.0,97,0.00,,,0.00,0.0,meteohub,2013-05-10 04:18:00,
2013-05-10 00:23:00,53.4,52.5,29.92,SW,219,0.0,2.0,97,0.00,,,0.00,0.0,meteohub,2013-05-10 04:23:00,
2013-05-10 00:29:00,53.2,52.2,29.92,SW,219,0.0,0.0,96,0.00,,,0.00,0.0,meteohub,2013-05-10 04:29:00,
2013-05-10 00:34:00,52.9,51.8,29.93,SW,219,0.0,0.0,96,0.00,,,0.00,0.0,meteohub,2013-05-10 04:34:00,
2013-05-10 00:39:00,52.9,51.8,29.93,SW,219,0.0,0.0,96,0.00,,,0.00,0.0,meteohub,2013-05-10 04:39:00,
2013-05-10 00:44:00,52.7,51.6,29.92,SW,219,0.0,0.0,96,0.00,,,0.00,0.0,meteohub,2013-05-10 04:44:00,
2013-05-10 00:49:00,52.7,51.6,29.92,SW,219,0.0,0.0,96,0.00,,,0.00,0.0,meteohub,2013-05-10 04:49:00,
2013-05-10 00:54:00,52.3,51.4,29.92,SW,219,0.0,0.0,97,0.00,,,0.00,0.0,meteohub,2013-05-10 04:54:00,
2013-05-10 00:59:00,52.3,51.3,29.92,SW,219,0.0,0.0,96,0.00,,,0.00,0.0,meteohub,2013-05-10 04:59:00,
2013-05-10 01:04:00,52.2,51.1,29.92,SW,219,1.0,0.0,96,0.00,,,0.00,0.0,meteohub,2013-05-10 05:04:00,
2013-05-10 01:10:00,52.0,51.1,29.92,SW,219,0.0,2.0,97,0.00,,,0.00,0.0,meteohub,2013-05-10 05:10:00,
2013-05-10 01:15:00,52.0,51.1,29.92,SW,219,2.0,2.0,97,0.00,,,0.00,0.0,meteohub,2013-05-10 05:15:00,
2013-05-10 01:20:00,51.4,50.4,29.92,SW,222,0.0,3.0,96,0.00,,,0.00,0.0,meteohub,2013-05-10 05:20:00,
2013-05-10 01:25:00,51.3,50.4,29.92,SW,222,0.0,3.0,97,0.00,,,0.00,0.0,meteohub,2013-05-10 05:25:00,
2013-05-10 01:30:00,51.4,50.5,29.91,SW,222,0.0,3.0,97,0.00,,,0.00,0.0,meteohub,2013-05-10 05:30:00,
2013-05-10 01:35:00,52.0,51.1,29.92,SW,222,0.0,1.0,97,0.00,,,0.00,0.0,meteohub,2013-05-10 05:35:00,
2013-05-10 01:40:00,51.4,50.4,29.91,SW,222,0.0,0.0,96,0.00,,,0.00,0.0,meteohub,2013-05-10 05:40:00,
2013-05-10 01:46:00,51.4,50.5,29.91,SW,222,0.0,0.0,97,0.00,,,0.00,0.0,meteohub,2013-05-10 05:46:00,
2013-05-10 01:51:00,51.3,50.4,29.91,SW,222,0.0,0.0,97,0.00,,,0.00,0.0,meteohub,2013-05-10 05:51:00,
2013-05-10 01:56:00,51.3,50.4,29.91,SW,222,0.0,0.0,97,0.00,,,0.00,0.0,meteohub,2013-05-10 05:56:00,
2013-05-10 02:01:00,51.3,50.2,29.91,SW,222,0.0,0.0,96,0.00,,,0.00,0.0,meteohub,2013-05-10 06:01:00,
2013-05-10 02:06:00,51.1,50.0,29.91,SW,222,0.0,0.0,96,0.00,,,0.00,0.0,meteohub,2013-05-10 06:06:00,
2013-05-10 02:11:00,51.1,50.2,29.91,SW,222,0.0,0.0,97,0.00,,,0.00,0.0,meteohub,2013-05-10 06:11:00,
2013-05-10 02:16:00,50.9,50.0,29.91,SW,222,0.0,0.0,97,0.00,,,0.00,0.0,meteohub,2013-05-10 06:16:00,
2013-05-10 02:21:00,51.1,50.2,29.91,SW,222,1.0,0.0,97,0.00,,,0.00,0.0,meteohub,2013-05-10 06:21:00,
2013-05-10 02:27:00,50.4,49.3,29.91,SW,222,1.0,2.0,96,0.00,,,0.00,0.0,meteohub,2013-05-10 06:27:00,
2013-05-10 02:32:00,50.2,49.1,29.92,SW,222,0.0,3.0,96,0.00,,,0.00,0.0,meteohub,2013-05-10 06:32:00,
2013-05-10 02:37:00,50.2,49.3,29.91,SW,222,0.0,3.0,97,0.00,,,0.00,0.0,meteohub,2013-05-10 06:37:00,
2013-05-10 02:42:00,50.4,49.5,29.91,SW,222,0.0,3.0,97,0.00,,,0.00,0.0,meteohub,2013-05-10 06:42:00,
2013-05-10 02:47:00,50.2,49.3,29.92,SW,222,1.0,1.0,97,0.00,,,0.00,0.0,meteohub,2013-05-10 06:47:00,
2013-05-10 02:52:00,49.8,48.7,29.92,SW,222,1.0,2.0,96,0.00,,,0.00,0.0,meteohub,2013-05-10 06:52:00,
2013-05-10 02:57:00,49.8,48.7,29.92,SW,222,0.0,3.0,96,0.00,,,0.00,0.0,meteohub,2013-05-10 06:57:00,
2013-05-10 03:02:00,50.2,49.3,29.93,SW,222,0.0,3.0,97,0.00,,,0.00,0.0,meteohub,2013-05-10 07:02:00,
2013-05-10 03:07:00,50.0,49.1,29.92,SW,222,0.0,3.0,97,0.00,,,0.00,0.0,meteohub,2013-05-10 07:07:00,
2013-05-10 03:12:00,49.8,48.7,29.93,SW,222,0.0,0.0,96,0.00,,,0.00,0.0,meteohub,2013-05-10 07:12:00,
2013-05-10 03:17:00,49.8,48.9,29.93,SW,222,0.0,0.0,97,0.00,,,0.00,0.0,meteohub,2013-05-10 07:17:00,
2013-05-10 03:22:00,49.6,48.6,29.93,SW,222,0.0,0.0,96,0.00,,,0.00,0.0,meteohub,2013-05-10 07:22:00,
2013-05-10 03:27:00,49.3,48.4,29.92,SW,222,0.0,0.0,97,0.00,,,0.00,0.0,meteohub,2013-05-10 07:27:00,
2013-05-10 03:32:00,49.3,48.2,29.92,SW,222,0.0,0.0,96,0.00,,,0.00,0.0,meteohub,2013-05-10 07:32:00,
2013-05-10 03:37:00,49.3,48.2,29.92,SW,222,1.0,2.0,96,0.00,,,0.00,0.0,meteohub,2013-05-10 07:37:00,
2013-05-10 03:42:00,49.5,48.6,29.92,SW,222,0.0,3.0,97,0.00,,,0.00,0.0,meteohub,2013-05-10 07:42:00,
2013-05-10 03:47:00,49.6,48.7,29.92,SW,222,0.0,3.0,97,0.00,,,0.00,0.0,meteohub,2013-05-10 07:47:00,
2013-05-10 03:52:00,49.8,48.9,29.92,SW,222,0.0,3.0,97,0.00,,,0.00,0.0,meteohub,2013-05-10 07:52:00,
2013-05-10 03:57:00,49.8,48.9,29.92,SW,222,0.0,2.0,97,0.00,,,0.00,0.0,meteohub,2013-05-10 07:57:00,
2013-05-10 04:02:00,49.8,48.9,29.93,SW,222,0.0,2.0,97,0.00,,,0.00,0.0,meteohub,2013-05-10 08:02:00,
2013-05-10 04:07:00,49.8,48.9,29.93,SW,222,0.0,1.0,97,0.00,,,0.00,0.0,meteohub,2013-05-10 08:07:00,
2013-05-10 04:12:00,50.2,49.3,29.92,SW,222,0.0,2.0,97,0.00,,,0.00,0.0,meteohub,2013-05-10 08:12:00,
2013-05-10 04:17:00,50.4,49.5,29.93,SW,222,2.0,2.0,97,0.00,,,0.00,0.0,meteohub,2013-05-10 08:17:00,
2013-05-10 04:22:00,50.2,49.3,29.93,WSW,242,1.0,4.0,97,0.00,,,0.00,0.0,meteohub,2013-05-10 08:22:00,
2013-05-10 04:27:00,50.4,49.5,29.93,WSW,242,0.0,4.0,97,0.00,,,0.00,0.0,meteohub,2013-05-10 08:27:00,
2013-05-10 04:32:00,50.4,49.5,29.93,WSW,242,0.0,4.0,97,0.00,,,0.00,0.0,meteohub,2013-05-10 08:32:00,
2013-05-10 04:37:00,50.2,49.3,29.93,WSW,242,0.0,3.0,97,0.00,,,0.00,0.0,meteohub,2013-05-10 08:37:00,
2013-05-10 04:42:00,50.2,49.3,29.93,WSW,242,0.0,0.0,97,0.00,,,0.00,0.0,meteohub,2013-05-10 08:42:00,
2013-05-10 04:47:00,49.8,48.9,29.93,WSW,242,0.0,0.0,97,0.00,,,0.00,0.0,meteohub,2013-05-10 08:47:00,
2013-05-10 04:52:00,49.6,48.7,29.93,WSW,242,0.0,0.0,97,0.00,,,0.00,0.0,meteohub,2013-05-10 08:52:00,
2013-05-10 04:57:00,49.6,48.7,29.93,WSW,242,0.0,1.0,97,0.00,,,0.00,0.0,meteohub,2013-05-10 08:57:00,
2013-05-10 05:02:00,49.3,48.4,29.93,WSW,242,0.0,1.0,97,0.00,,,0.00,0.0,meteohub,2013-05-10 09:02:00,
2013-05-10 05:07:00,49.3,48.4,29.92,WSW,242,0.0,3.0,97,0.00,,,0.00,0.0,meteohub,2013-05-10 09:07:00,
2013-05-10 05:12:00,49.3,48.4,29.93,WSW,242,0.0,3.0,97,0.00,,,0.00,0.0,meteohub,2013-05-10 09:12:00,
2013-05-10 05:17:00,49.3,48.4,29.93,WSW,242,0.0,2.0,97,0.00,,,0.00,0.0,meteohub,2013-05-10 09:17:00,
2013-05-10 05:22:00,49.3,48.4,29.93,WSW,242,0.0,0.0,97,0.00,,,0.00,0.0,meteohub,2013-05-10 09:22:00,
2013-05-10 05:27:00,48.9,48.0,29.93,WSW,242,0.0,0.0,97,0.00,,,0.00,0.0,meteohub,2013-05-10 09:27:00,
2013-05-10 05:32:00,48.7,47.8,29.93,WSW,242,0.0,1.0,97,0.00,,,0.00,0.0,meteohub,2013-05-10 09:32:00,
2013-05-10 05:37:00,48.6,47.7,29.93,WSW,242,0.0,1.0,97,0.00,,,0.00,0.0,meteohub,2013-05-10 09:37:00,
2013-05-10 05:42:00,48.6,47.7,29.93,WSW,242,0.0,1.0,97,0.00,,,0.00,5.0,meteohub,2013-05-10 09:42:00,
2013-05-10 05:47:00,48.4,47.5,29.93,WSW,242,0.0,0.0,97,0.00,,,0.00,7.0,meteohub,2013-05-10 09:47:00,
2013-05-10 05:52:00,48.6,47.7,29.94,WSW,242,0.0,0.0,97,0.00,,,0.00,9.0,meteohub,2013-05-10 09:52:00,
2013-05-10 05:57:00,48.4,47.5,29.94,WSW,242,0.0,0.0,97,0.00,,,0.00,11.0,meteohub,2013-05-10 09:57:00,
2013-05-10 06:02:00,48.2,47.3,29.94,WSW,242,0.0,0.0,97,0.00,,,0.00,14.0,meteohub,2013-05-10 10:02:00,
2013-05-10 06:07:00,48.2,47.3,29.95,WSW,242,0.0,0.0,97,0.00,,,0.00,16.0,meteohub,2013-05-10 10:07:00,
2013-05-10 06:12:00,48.6,47.7,29.95,WSW,242,0.0,0.0,97,0.00,,,0.00,18.0,meteohub,2013-05-10 10:12:00,
2013-05-10 06:17:00,48.6,47.7,29.95,WSW,242,0.0,0.0,97,0.00,,,0.00,19.0,meteohub,2013-05-10 10:17:00,
2013-05-10 06:22:00,48.6,47.7,29.95,WSW,242,0.0,0.0,97,0.01,,,0.01,53.0,meteohub,2013-05-10 10:22:00,
2013-05-10 06:27:00,48.9,48.0,29.95,WSW,242,0.0,0.0,97,0.01,,,0.01,62.0,meteohub,2013-05-10 10:27:00,
2013-05-10 06:32:00,49.5,48.6,29.95,WSW,242,0.0,0.0,97,0.01,,,0.01,74.0,meteohub,2013-05-10 10:32:00,
2013-05-10 06:37:00,49.5,48.6,29.96,WSW,242,2.0,0.0,97,0.01,,,0.01,88.0,meteohub,2013-05-10 10:37:00,
2013-05-10 06:42:00,49.8,48.9,29.96,WSW,242,0.0,3.0,97,0.01,,,0.01,100.0,meteohub,2013-05-10 10:42:00,
2013-05-10 06:47:00,50.5,49.6,29.96,WSW,242,0.0,3.0,97,0.01,,,0.01,116.0,meteohub,2013-05-10 10:47:00,
2013-05-10 06:52:00,51.1,50.2,29.96,WSW,242,0.0,3.0,97,0.01,,,0.01,132.0,meteohub,2013-05-10 10:52:00,
2013-05-10 06:57:00,51.8,50.9,29.96,WSW,242,0.0,1.0,97,0.01,,,0.01,146.0,meteohub,2013-05-10 10:57:00,
2013-05-10 07:02:00,52.9,52.0,29.96,WSW,242,0.0,1.0,97,0.01,,,0.01,162.0,meteohub,2013-05-10 11:02:00,
2013-05-10 07:07:00,53.2,52.3,29.96,WSW,242,0.0,1.0,97,0.01,,,0.01,179.0,meteohub,2013-05-10 11:07:00,
2013-05-10 07:12:00,53.8,52.9,29.96,South,169,0.0,2.0,97,0.01,,,0.01,190.0,meteohub,2013-05-10 11:12:00,
2013-05-10 07:17:00,54.0,53.1,29.96,South,169,0.0,2.0,97,0.01,,,0.01,167.0,meteohub,2013-05-10 11:17:00,
2013-05-10 07:22:00,54.7,53.8,29.96,South,169,0.0,2.0,97,0.00,,,0.01,190.0,meteohub,2013-05-10 11:22:00,
2013-05-10 07:27:00,55.0,54.1,29.96,South,169,0.0,2.0,97,0.00,,,0.01,185.0,meteohub,2013-05-10 11:27:00,
2013-05-10 07:32:00,55.2,54.3,29.97,South,169,0.0,2.0,97,0.00,,,0.01,243.0,meteohub,2013-05-10 11:32:00,
2013-05-10 07:37:00,55.6,54.7,29.97,South,169,2.0,2.0,97,0.00,,,0.01,193.0,meteohub,2013-05-10 11:37:00,
2013-05-10 07:42:00,55.6,54.7,29.97,South,169,0.0,4.0,97,0.00,,,0.01,276.0,meteohub,2013-05-10 11:42:00,
2013-05-10 07:47:00,55.8,54.9,29.97,South,169,0.0,4.0,97,0.00,,,0.01,264.0,meteohub,2013-05-10 11:47:00,
2013-05-10 07:52:00,56.1,55.2,29.97,South,169,0.0,4.0,97,0.00,,,0.01,313.0,meteohub,2013-05-10 11:52:00,
2013-05-10 07:57:00,56.3,55.4,29.98,South,169,1.0,4.0,97,0.00,,,0.01,323.0,meteohub,2013-05-10 11:57:00,
2013-05-10 08:02:00,56.8,55.9,29.98,South,173,4.0,5.0,97,0.00,,,0.01,339.0,meteohub,2013-05-10 12:02:00,
2013-05-10 08:07:00,57.6,56.7,29.98,South,173,0.0,5.0,97,0.00,,,0.01,364.0,meteohub,2013-05-10 12:07:00,
2013-05-10 08:12:00,58.5,57.6,29.97,South,173,0.0,5.0,97,0.00,,,0.01,383.0,meteohub,2013-05-10 12:12:00,
2013-05-10 08:17:00,59.4,58.5,29.97,South,173,4.0,4.0,97,0.00,,,0.01,401.0,meteohub,2013-05-10 12:17:00,
2013-05-10 08:22:00,59.5,58.5,29.97,South,173,1.0,4.0,96,0.00,,,0.01,417.0,meteohub,2013-05-10 12:22:00,
2013-05-10 08:27:00,59.9,58.8,29.97,SSE,165,2.0,4.0,96,0.00,,,0.01,436.0,meteohub,2013-05-10 12:27:00,
2013-05-10 08:32:00,61.3,59.9,29.97,SSE,165,1.0,4.0,95,0.00,,,0.01,452.0,meteohub,2013-05-10 12:32:00,
2013-05-10 08:37:00,62.8,61.0,29.97,SSE,161,0.0,4.0,94,0.00,,,0.01,469.0,meteohub,2013-05-10 12:37:00,
2013-05-10 08:42:00,63.1,60.4,29.97,SSE,161,0.0,4.0,91,0.00,,,0.01,489.0,meteohub,2013-05-10 12:42:00,
2013-05-10 08:47:00,63.0,59.9,29.97,SSE,161,2.0,2.0,90,0.00,,,0.01,499.0,meteohub,2013-05-10 12:47:00,
2013-05-10 08:52:00,63.1,60.1,29.97,SSE,161,0.0,4.0,90,0.00,,,0.01,515.0,meteohub,2013-05-10 12:52:00,
2013-05-10 08:57:00,63.9,60.6,29.97,SSE,161,1.0,4.0,89,0.00,,,0.01,524.0,meteohub,2013-05-10 12:57:00,
2013-05-10 09:02:00,64.4,60.8,29.97,SSE,161,1.0,4.0,88,0.00,,,0.01,541.0,meteohub,2013-05-10 13:02:00,
2013-05-10 09:07:00,64.6,60.3,29.97,SSE,161,1.0,4.0,86,0.00,,,0.01,555.0,meteohub,2013-05-10 13:07:00,
2013-05-10 09:12:00,64.8,60.1,29.97,SW,219,2.0,4.0,85,0.00,,,0.01,570.0,meteohub,2013-05-10 13:12:00,
2013-05-10 09:17:00,64.9,59.7,29.97,South,188,0.0,5.0,83,0.00,,,0.01,584.0,meteohub,2013-05-10 13:17:00,
2013-05-10 09:22:00,65.8,60.8,29.97,South,182,5.0,5.0,84,0.00,,,0.01,598.0,meteohub,2013-05-10 13:22:00,
2013-05-10 09:27:00,66.0,61.0,29.96,SSE,167,1.0,6.0,84,0.00,,,0.01,612.0,meteohub,2013-05-10 13:27:00,
2013-05-10 09:32:00,67.3,61.5,29.96,SSE,153,4.0,6.0,82,0.00,,,0.01,626.0,meteohub,2013-05-10 13:32:00,
2013-05-10 09:37:00,66.9,61.2,29.96,SSW,192,4.0,6.0,82,0.00,,,0.01,638.0,meteohub,2013-05-10 13:37:00,
2013-05-10 09:42:00,66.6,60.6,29.96,South,182,6.0,8.0,81,0.00,,,0.01,650.0,meteohub,2013-05-10 13:42:00,
2013-05-10 09:47:00,66.6,60.6,29.96,SSE,155,1.0,8.0,81,0.00,,,0.01,661.0,meteohub,2013-05-10 13:47:00,
2013-05-10 09:52:00,66.2,60.3,29.97,SSW,196,4.0,7.0,81,0.00,,,0.01,677.0,meteohub,2013-05-10 13:52:00,
2013-05-10 09:57:00,66.2,60.3,29.97,SSE,149,5.0,7.0,81,0.00,,,0.01,687.0,meteohub,2013-05-10 13:57:00,
2013-05-10 10:02:00,66.2,60.3,29.97,South,185,3.0,9.0,81,0.00,,,0.01,661.0,meteohub,2013-05-10 14:02:00,
2013-05-10 10:07:00,66.9,60.3,29.97,South,180,8.0,9.0,79,0.00,,,0.01,677.0,meteohub,2013-05-10 14:07:00,
2013-05-10 10:12:00,66.6,60.3,29.97,South,182,3.0,10.0,80,0.00,,,0.01,712.0,meteohub,2013-05-10 14:12:00,
2013-05-10 10:17:00,67.6,61.2,29.96,SE,128,4.0,10.0,80,0.00,,,0.01,731.0,meteohub,2013-05-10 14:17:00,
2013-05-10 10:22:00,68.5,61.0,29.97,SE,146,0.0,10.0,77,0.00,,,0.01,745.0,meteohub,2013-05-10 14:22:00,
2013-05-10 10:27:00,68.7,60.8,29.97,SSW,196,3.0,7.0,76,0.00,,,0.01,756.0,meteohub,2013-05-10 14:27:00,
2013-05-10 10:32:00,68.7,60.8,29.97,South,188,3.0,7.0,76,0.00,,,0.01,773.0,meteohub,2013-05-10 14:32:00,
2013-05-10 10:37:00,69.3,61.3,29.97,SSE,161,4.0,6.0,76,0.00,,,0.01,691.0,meteohub,2013-05-10 14:37:00,
2013-05-10 10:42:00,69.1,61.2,29.97,South,170,2.0,8.0,76,0.00,,,0.01,696.0,meteohub,2013-05-10 14:42:00,
2013-05-10 10:47:00,69.6,61.3,29.97,SSW,199,4.0,8.0,75,0.00,,,0.01,705.0,meteohub,2013-05-10 14:47:00,
2013-05-10 10:52:00,70.2,61.2,29.96,SSW,197,5.0,8.0,73,0.00,,,0.01,763.0,meteohub,2013-05-10 14:52:00,
2013-05-10 10:57:00,70.0,61.0,29.96,South,175,6.0,9.0,73,0.00,,,0.01,761.0,meteohub,2013-05-10 14:57:00,
2013-05-10 11:02:00,70.3,61.7,29.96,South,181,4.0,9.0,74,0.00,,,0.01,816.0,meteohub,2013-05-10 15:02:00,
2013-05-10 11:07:00,70.5,61.5,29.97,SSW,211,8.0,9.0,73,0.00,,,0.01,838.0,meteohub,2013-05-10 15:07:00,
2013-05-10 11:12:00,70.9,61.0,29.96,SSW,194,1.0,9.0,71,0.00,,,0.01,830.0,meteohub,2013-05-10 15:12:00,
2013-05-10 11:17:00,71.4,61.2,29.96,SSW,199,6.0,9.0,70,0.00,,,0.01,831.0,meteohub,2013-05-10 15:17:00,
2013-05-10 11:22:00,71.4,61.5,29.96,SSE,157,1.0,9.0,71,0.00,,,0.01,853.0,meteohub,2013-05-10 15:22:00,
2013-05-10 11:27:00,72.0,61.7,29.96,SSE,148,4.0,9.0,70,0.00,,,0.01,860.0,meteohub,2013-05-10 15:27:00,
2013-05-10 11:32:00,72.1,61.9,29.96,South,188,2.0,10.0,70,0.00,,,0.01,867.0,meteohub,2013-05-10 15:32:00,
2013-05-10 11:37:00,71.8,61.0,29.96,SSE,163,4.0,10.0,69,0.00,,,0.01,877.0,meteohub,2013-05-10 15:37:00,
2013-05-10 11:42:00,71.4,61.2,29.96,SW,221,3.0,10.0,70,0.00,,,0.01,900.0,meteohub,2013-05-10 15:42:00,
2013-05-10 11:47:00,70.5,60.3,29.96,South,173,6.0,12.0,70,0.00,,,0.01,942.0,meteohub,2013-05-10 15:47:00,
2013-05-10 11:52:00,70.7,60.4,29.96,SSW,194,4.0,14.0,70,0.00,,,0.01,1002.0,meteohub,2013-05-10 15:52:00,
2013-05-10 11:57:00,70.2,60.3,29.96,South,175,10.0,14.0,71,0.00,,,0.01,896.0,meteohub,2013-05-10 15:57:00,
2013-05-10 12:02:00,70.9,61.3,29.96,SSE,168,5.0,13.0,72,0.00,,,0.01,939.0,meteohub,2013-05-10 16:02:00,
2013-05-10 12:07:00,70.7,60.4,29.96,South,182,7.0,13.0,70,0.00,,,0.01,958.0,meteohub,2013-05-10 16:07:00,
2013-05-10 12:12:00,70.9,60.3,29.96,SW,221,7.0,13.0,69,0.00,,,0.01,905.0,meteohub,2013-05-10 16:12:00,
2013-05-10 12:17:00,71.2,60.6,29.96,SW,227,7.0,13.0,69,0.00,,,0.01,803.0,meteohub,2013-05-10 16:17:00,
2013-05-10 12:22:00,71.4,60.3,29.95,SSW,205,4.0,10.0,68,0.00,,,0.01,960.0,meteohub,2013-05-10 16:22:00,
2013-05-10 12:27:00,71.2,60.6,29.95,SSE,165,6.0,10.0,69,0.00,,,0.01,898.0,meteohub,2013-05-10 16:27:00,
2013-05-10 12:32:00,71.1,59.5,29.95,South,190,6.0,11.0,67,0.00,,,0.01,947.0,meteohub,2013-05-10 16:32:00,
2013-05-10 12:37:00,72.0,60.4,29.95,SW,226,7.0,11.0,67,0.00,,,0.01,949.0,meteohub,2013-05-10 16:37:00,
2013-05-10 12:42:00,72.1,60.6,29.96,SSW,200,4.0,11.0,67,0.00,,,0.01,946.0,meteohub,2013-05-10 16:42:00,
2013-05-10 12:47:00,70.9,59.0,29.96,SSW,202,9.0,11.0,66,0.00,,,0.01,946.0,meteohub,2013-05-10 16:47:00,
2013-05-10 12:52:00,69.8,58.8,29.96,SW,229,3.0,13.0,68,0.00,,,0.01,907.0,meteohub,2013-05-10 16:52:00,
2013-05-10 12:57:00,70.3,58.8,29.96,SSW,211,7.0,14.0,67,0.00,,,0.01,972.0,meteohub,2013-05-10 16:57:00,
2013-05-10 13:02:00,71.2,59.4,29.96,SSW,198,8.0,14.0,66,0.00,,,0.01,921.0,meteohub,2013-05-10 17:02:00,
2013-05-10 13:07:00,71.8,59.4,29.96,South,176,12.0,13.0,65,0.00,,,0.01,842.0,meteohub,2013-05-10 17:07:00,
2013-05-10 13:12:00,71.2,58.8,29.96,SSE,152,9.0,12.0,65,0.00,,,0.01,666.0,meteohub,2013-05-10 17:12:00,
2013-05-10 13:17:00,71.1,59.2,29.96,SW,231,2.0,13.0,66,0.00,,,0.01,671.0,meteohub,2013-05-10 17:17:00,
2013-05-10 13:22:00,71.6,58.8,29.96,South,172,11.0,13.0,64,0.00,,,0.01,1048.0,meteohub,2013-05-10 17:22:00,
2013-05-10 13:27:00,71.4,58.6,29.95,South,190,13.0,13.0,64,0.00,,,0.01,1056.0,meteohub,2013-05-10 17:27:00,
2013-05-10 13:32:00,71.8,59.0,29.95,SE,130,0.0,14.0,64,0.00,,,0.01,624.0,meteohub,2013-05-10 17:32:00,
2013-05-10 13:37:00,72.1,57.9,29.95,SSW,203,4.0,14.0,61,0.00,,,0.01,538.0,meteohub,2013-05-10 17:37:00,
2013-05-10 13:42:00,72.1,57.6,29.96,SSW,201,3.0,14.0,60,0.00,,,0.01,747.0,meteohub,2013-05-10 17:42:00,
2013-05-10 13:47:00,72.9,57.7,29.96,WSW,251,3.0,12.0,59,0.00,,,0.01,1113.0,meteohub,2013-05-10 17:47:00,
2013-05-10 13:52:00,74.5,58.3,29.96,SSW,193,3.0,12.0,57,0.00,,,0.01,1037.0,meteohub,2013-05-10 17:52:00,
2013-05-10 13:57:00,73.9,56.8,29.95,SSW,200,10.0,10.0,55,0.00,,,0.01,1028.0,meteohub,2013-05-10 17:57:00,
2013-05-10 14:02:00,73.9,57.2,29.95,SSW,207,5.0,12.0,56,0.00,,,0.01,979.0,meteohub,2013-05-10 18:02:00,
2013-05-10 14:07:00,73.8,56.7,29.95,SSW,206,7.0,13.0,55,0.00,,,0.01,995.0,meteohub,2013-05-10 18:07:00,
2013-05-10 14:12:00,74.5,55.8,29.95,SSW,213,6.0,15.0,52,0.00,,,0.01,990.0,meteohub,2013-05-10 18:12:00,
2013-05-10 14:17:00,74.8,55.6,29.95,WSW,238,7.0,15.0,51,0.00,,,0.01,722.0,meteohub,2013-05-10 18:17:00,
2013-05-10 14:22:00,75.4,55.4,29.95,SE,146,5.0,15.0,50,0.00,,,0.01,911.0,meteohub,2013-05-10 18:22:00,
2013-05-10 14:27:00,76.1,56.1,29.94,SSW,213,4.0,13.0,50,0.00,,,0.01,896.0,meteohub,2013-05-10 18:27:00,
2013-05-10 14:32:00,75.9,54.9,29.94,SSE,167,9.0,13.0,48,0.00,,,0.01,918.0,meteohub,2013-05-10 18:32:00,
2013-05-10 14:37:00,74.8,54.3,29.94,South,185,6.0,18.0,49,0.00,,,0.01,860.0,meteohub,2013-05-10 18:37:00,
2013-05-10 14:42:00,75.7,54.1,29.94,South,177,10.0,18.0,47,0.00,,,0.01,838.0,meteohub,2013-05-10 18:42:00,
2013-05-10 14:47:00,75.6,55.0,29.94,SSE,166,2.0,18.0,49,0.00,,,0.01,701.0,meteohub,2013-05-10 18:47:00,
2013-05-10 14:52:00,75.4,54.9,29.94,South,180,4.0,13.0,49,0.00,,,0.01,439.0,meteohub,2013-05-10 18:52:00,
2013-05-10 14:57:00,75.2,56.8,29.94,SW,223,7.0,13.0,53,0.00,,,0.01,828.0,meteohub,2013-05-10 18:57:00,
2013-05-10 15:02:00,73.9,55.8,29.94,South,185,8.0,13.0,53,0.00,,,0.01,708.0,meteohub,2013-05-10 19:02:00,
2013-05-10 15:07:00,73.6,56.8,29.94,South,169,1.0,13.0,56,0.00,,,0.01,779.0,meteohub,2013-05-10 19:07:00,
2013-05-10 15:12:00,73.4,56.3,29.94,SSW,196,9.0,13.0,55,0.00,,,0.01,777.0,meteohub,2013-05-10 19:12:00,
2013-05-10 15:17:00,74.5,55.8,29.94,SSW,209,3.0,12.0,52,0.00,,,0.01,643.0,meteohub,2013-05-10 19:17:00,
2013-05-10 15:22:00,73.9,55.8,29.94,South,180,6.0,10.0,53,0.00,,,0.01,527.0,meteohub,2013-05-10 19:22:00,
2013-05-10 15:27:00,74.1,55.9,29.94,South,178,2.0,10.0,53,0.00,,,0.01,334.0,meteohub,2013-05-10 19:27:00,
2013-05-10 15:32:00,73.9,55.2,29.94,SSW,194,2.0,10.0,52,0.00,,,0.01,482.0,meteohub,2013-05-10 19:32:00,
2013-05-10 15:37:00,73.2,55.0,29.94,South,171,4.0,8.0,53,0.00,,,0.01,508.0,meteohub,2013-05-10 19:37:00,
2013-05-10 15:42:00,73.6,55.9,29.94,South,184,0.0,8.0,54,0.00,,,0.01,483.0,meteohub,2013-05-10 19:42:00,
2013-05-10 15:47:00,73.9,55.8,29.94,South,184,4.0,8.0,53,0.00,,,0.01,531.0,meteohub,2013-05-10 19:47:00,
2013-05-10 15:52:00,74.3,55.0,29.94,South,190,3.0,7.0,51,0.00,,,0.01,645.0,meteohub,2013-05-10 19:52:00,
2013-05-10 15:57:00,74.5,55.2,29.93,SE,136,7.0,8.0,51,0.00,,,0.01,554.0,meteohub,2013-05-10 19:57:00,
2013-05-10 16:02:00,74.5,54.7,29.94,SSW,203,8.0,9.0,50,0.00,,,0.01,348.0,meteohub,2013-05-10 20:02:00,
2013-05-10 16:07:00,73.9,55.8,29.94,SSW,196,9.0,13.0,53,0.00,,,0.01,445.0,meteohub,2013-05-10 20:07:00,
2013-05-10 16:12:00,73.6,56.5,29.94,South,187,2.0,13.0,55,0.00,,,0.01,334.0,meteohub,2013-05-10 20:12:00,
2013-05-10 16:17:00,73.0,56.5,29.94,SSE,167,6.0,13.0,56,0.00,,,0.01,350.0,meteohub,2013-05-10 20:17:00,
2013-05-10 16:22:00,73.0,56.5,29.94,SSW,195,4.0,10.0,56,0.00,,,0.01,267.0,meteohub,2013-05-10 20:22:00,
2013-05-10 16:27:00,73.0,56.8,29.94,SSE,167,1.0,8.0,57,0.00,,,0.01,246.0,meteohub,2013-05-10 20:27:00,
2013-05-10 16:32:00,73.0,55.9,29.94,SE,130,4.0,6.0,55,0.00,,,0.01,265.0,meteohub,2013-05-10 20:32:00,
2013-05-10 16:37:00,72.3,55.8,29.94,SSE,161,0.0,7.0,56,0.00,,,0.01,292.0,meteohub,2013-05-10 20:37:00,
2013-05-10 16:42:00,72.9,56.3,29.94,ESE,122,2.0,7.0,56,0.00,,,0.01,313.0,meteohub,2013-05-10 20:42:00,
2013-05-10 16:47:00,72.9,56.3,29.93,SE,134,0.0,7.0,56,0.00,,,0.01,373.0,meteohub,2013-05-10 20:47:00,
2013-05-10 16:52:00,73.2,56.1,29.93,ESE,123,5.0,7.0,55,0.00,,,0.01,355.0,meteohub,2013-05-10 20:52:00,
2013-05-10 16:57:00,74.1,56.5,29.93,SE,137,2.0,7.0,54,0.00,,,0.01,330.0,meteohub,2013-05-10 20:57:00,
2013-05-10 17:02:00,73.6,56.5,29.93,SSE,151,2.0,7.0,55,0.00,,,0.01,260.0,meteohub,2013-05-10 21:02:00,
2013-05-10 17:07:00,73.6,56.5,29.93,ESE,105,1.0,7.0,55,0.00,,,0.01,264.0,meteohub,2013-05-10 21:07:00,
2013-05-10 17:12:00,73.2,56.1,29.93,East,101,4.0,7.0,55,0.00,,,0.01,234.0,meteohub,2013-05-10 21:12:00,
2013-05-10 17:17:00,72.9,56.3,29.93,SE,138,6.0,7.0,56,0.00,,,0.01,253.0,meteohub,2013-05-10 21:17:00,
2013-05-10 17:22:00,72.5,56.8,29.93,ESE,107,5.0,7.0,58,0.00,,,0.01,225.0,meteohub,2013-05-10 21:22:00,
2013-05-10 17:27:00,72.7,57.0,29.93,SSE,150,6.0,7.0,58,0.00,,,0.01,214.0,meteohub,2013-05-10 21:27:00,
2013-05-10 17:32:00,72.1,56.5,29.93,South,181,5.0,7.0,58,0.00,,,0.01,227.0,meteohub,2013-05-10 21:32:00,
2013-05-10 17:37:00,71.4,56.3,29.93,SE,142,1.0,7.0,59,0.00,,,0.01,188.0,meteohub,2013-05-10 21:37:00,
2013-05-10 17:42:00,71.2,57.0,29.92,SSE,166,2.0,7.0,61,0.00,,,0.01,171.0,meteohub,2013-05-10 21:42:00,
2013-05-10 17:47:00,71.4,57.7,29.92,SSE,168,2.0,7.0,62,0.00,,,0.01,163.0,meteohub,2013-05-10 21:47:00,
2013-05-10 17:52:00,71.4,57.7,29.93,SSE,153,2.0,7.0,62,0.00,,,0.01,169.0,meteohub,2013-05-10 21:52:00,
2013-05-10 17:57:00,70.3,57.2,29.93,SSE,163,4.0,7.0,63,0.00,,,0.01,169.0,meteohub,2013-05-10 21:57:00,
2013-05-10 17:58:00,70.0,56.8,29.93,SSE,152,4.0,7.0,63,0.00,,,0.01,169.0,meteohub,2013-05-10 21:58:00,
2013-05-10 17:59:00,70.0,57.2,29.93,SSE,152,0.0,7.0,64,0.00,,,0.01,169.0,meteohub,2013-05-10 21:59:00,
2013-05-10 18:01:00,69.8,57.6,29.93,SE,138,0.0,7.0,65,0.00,,,0.01,167.0,meteohub,2013-05-10 22:01:00,
2013-05-10 18:06:00,69.6,57.4,29.93,SE,139,1.0,7.0,65,0.00,,,0.01,153.0,meteohub,2013-05-10 22:06:00,
2013-05-10 18:11:00,69.8,57.6,29.93,SE,146,0.0,6.0,65,0.00,,,0.01,149.0,meteohub,2013-05-10 22:11:00,
2013-05-10 18:16:00,69.6,57.4,29.93,SE,146,0.0,4.0,65,0.00,,,0.01,141.0,meteohub,2013-05-10 22:16:00,
2013-05-10 18:21:00,69.6,57.7,29.94,SSE,164,1.0,4.0,66,0.00,,,0.01,127.0,meteohub,2013-05-10 22:21:00,
2013-05-10 18:26:00,69.8,57.6,29.93,South,178,2.0,6.0,65,0.00,,,0.01,113.0,meteohub,2013-05-10 22:26:00,
2013-05-10 18:31:00,70.0,57.2,29.93,South,182,6.0,10.0,64,0.00,,,0.01,105.0,meteohub,2013-05-10 22:31:00,
2013-05-10 18:36:00,69.4,57.2,29.93,South,188,4.0,10.0,65,0.00,,,0.01,100.0,meteohub,2013-05-10 22:36:00,
2013-05-10 18:42:00,69.1,57.2,29.93,South,179,6.0,11.0,66,0.00,,,0.01,83.0,meteohub,2013-05-10 22:42:00,
2013-05-10 18:47:00,68.5,57.2,29.93,South,180,5.0,12.0,67,0.00,,,0.01,74.0,meteohub,2013-05-10 22:47:00,
2013-05-10 18:52:00,67.8,56.5,29.94,SSW,192,5.0,12.0,67,0.00,,,0.01,69.0,meteohub,2013-05-10 22:52:00,
2013-05-10 18:57:00,67.1,56.7,29.94,SSW,206,4.0,16.0,69,0.00,,,0.01,60.0,meteohub,2013-05-10 22:57:00,
2013-05-10 19:02:00,66.7,56.7,29.93,South,184,4.0,16.0,70,0.00,,,0.01,49.0,meteohub,2013-05-10 23:02:00,
2013-05-10 19:07:00,66.4,56.7,29.94,SSW,200,3.0,16.0,71,0.00,,,0.01,42.0,meteohub,2013-05-10 23:07:00,
2013-05-10 19:12:00,66.4,56.7,29.94,SSW,205,3.0,12.0,71,0.00,,,0.01,37.0,meteohub,2013-05-10 23:12:00,
2013-05-10 19:17:00,66.2,56.5,29.94,South,182,2.0,12.0,71,0.00,,,0.01,32.0,meteohub,2013-05-10 23:17:00,
2013-05-10 19:22:00,65.8,56.5,29.94,South,171,4.0,7.0,72,0.00,,,0.01,26.0,meteohub,2013-05-10 23:22:00,
2013-05-10 19:27:00,65.8,56.5,29.94,SW,227,1.0,7.0,72,0.00,,,0.01,21.0,meteohub,2013-05-10 23:27:00,
2013-05-10 19:32:00,65.7,56.3,29.94,SW,217,0.0,7.0,72,0.00,,,0.01,14.0,meteohub,2013-05-10 23:32:00,
2013-05-10 19:37:00,65.5,56.3,29.94,SW,214,1.0,7.0,72,0.00,,,0.01,11.0,meteohub,2013-05-10 23:37:00,
2013-05-10 19:42:00,65.1,56.3,29.94,SW,218,3.0,7.0,73,0.00,,,0.01,7.0,meteohub,2013-05-10 23:42:00,
2013-05-10 19:47:00,64.9,56.1,29.94,South,173,2.0,7.0,73,0.00,,,0.01,0.0,meteohub,2013-05-10 23:47:00,
2013-05-10 19:52:00,64.8,56.3,29.94,South,173,0.0,7.0,74,0.00,,,0.01,0.0,meteohub,2013-05-10 23:52:00,
2013-05-10 19:57:00,64.8,56.3,29.94,SSE,159,2.0,7.0,74,0.00,,,0.01,0.0,meteohub,2013-05-10 23:57:00,
2013-05-10 20:02:00,64.8,56.3,29.94,SSE,165,0.0,5.0,74,0.00,,,0.01,0.0,meteohub,2013-05-11 00:02:00,
2013-05-10 20:07:00,64.8,56.3,29.94,SSE,165,0.0,5.0,74,0.00,,,0.00,0.0,meteohub,2013-05-11 00:07:00,
2013-05-10 20:12:00,64.6,56.5,29.94,SSE,165,1.0,5.0,75,0.00,,,0.00,0.0,meteohub,2013-05-11 00:12:00,
2013-05-10 20:17:00,64.4,56.3,29.94,SSE,165,0.0,4.0,75,0.00,,,0.00,0.0,meteohub,2013-05-11 00:17:00,
2013-05-10 20:22:00,64.2,56.1,29.94,SSE,165,0.0,4.0,75,0.00,,,0.00,0.0,meteohub,2013-05-11 00:22:00,
2013-05-10 20:27:00,63.9,56.5,29.93,SSE,165,0.0,4.0,77,0.00,,,0.00,0.0,meteohub,2013-05-11 00:27:00,
2013-05-10 20:32:00,63.7,55.9,29.93,SSE,165,0.0,4.0,76,0.00,,,0.00,0.0,meteohub,2013-05-11 00:32:00,
2013-05-10 20:37:00,63.3,55.9,29.94,SSE,165,0.0,4.0,77,0.00,,,0.00,0.0,meteohub,2013-05-11 00:37:00,
2013-05-10 20:42:00,63.1,56.1,29.94,SSE,165,0.0,4.0,78,0.00,,,0.00,0.0,meteohub,2013-05-11 00:42:00,
2013-05-10 20:47:00,63.0,56.3,29.94,SSE,165,0.0,4.0,79,0.00,,,0.00,0.0,meteohub,2013-05-11 00:47:00,
2013-05-10 20:52:00,62.8,56.5,29.94,SSE,165,0.0,2.0,80,0.00,,,0.00,0.0,meteohub,2013-05-11 00:52:00,
2013-05-10 20:57:00,62.8,56.5,29.94,SSE,165,0.0,0.0,80,0.00,,,0.00,0.0,meteohub,2013-05-11 00:57:00,
2013-05-10 21:02:00,62.8,56.5,29.94,SSE,165,0.0,0.0,80,0.00,,,0.00,0.0,meteohub,2013-05-11 01:02:00,
2013-05-10 21:07:00,62.6,56.3,29.94,SSE,165,0.0,0.0,80,0.00,,,0.00,0.0,meteohub,2013-05-11 01:07:00,
2013-05-10 21:12:00,62.2,56.3,29.94,SSE,165,0.0,1.0,81,0.00,,,0.00,0.0,meteohub,2013-05-11 01:12:00,
2013-05-10 21:17:00,62.1,56.1,29.94,SSE,165,0.0,1.0,81,0.00,,,0.00,0.0,meteohub,2013-05-11 01:17:00,
2013-05-10 21:22:00,61.9,56.3,29.94,SSE,165,1.0,1.0,82,0.00,,,0.00,0.0,meteohub,2013-05-11 01:22:00,
2013-05-10 21:27:00,61.7,56.1,29.94,SSE,165,0.0,2.0,82,0.00,,,0.00,0.0,meteohub,2013-05-11 01:27:00,
2013-05-10 21:32:00,61.5,55.9,29.94,SSE,165,0.0,2.0,82,0.00,,,0.00,0.0,meteohub,2013-05-11 01:32:00,
2013-05-10 21:37:00,61.5,56.3,29.94,SSE,165,0.0,2.0,83,0.00,,,0.00,0.0,meteohub,2013-05-11 01:37:00,
2013-05-10 21:42:00,61.3,56.1,29.94,SSE,165,0.0,2.0,83,0.00,,,0.00,0.0,meteohub,2013-05-11 01:42:00,
2013-05-10 21:47:00,61.2,55.9,29.94,SSE,165,0.0,1.0,83,0.00,,,0.00,0.0,meteohub,2013-05-11 01:47:00,
2013-05-10 21:52:00,60.8,55.9,29.94,SSE,165,0.0,1.0,84,0.00,,,0.00,0.0,meteohub,2013-05-11 01:52:00,
2013-05-10 21:57:00,60.6,55.8,29.94,SSE,165,0.0,1.0,84,0.00,,,0.00,0.0,meteohub,2013-05-11 01:57:00,
2013-05-10 22:02:00,60.6,56.1,29.95,SSE,165,0.0,1.0,85,0.00,,,0.00,0.0,meteohub,2013-05-11 02:02:00,
2013-05-10 22:07:00,60.6,56.1,29.95,SSE,165,0.0,1.0,85,0.00,,,0.00,0.0,meteohub,2013-05-11 02:07:00,
2013-05-10 22:12:00,60.3,56.1,29.94,SSE,165,0.0,2.0,86,0.00,,,0.00,0.0,meteohub,2013-05-11 02:12:00,
2013-05-10 22:17:00,60.3,56.1,29.94,SSE,165,0.0,2.0,86,0.00,,,0.00,0.0,meteohub,2013-05-11 02:17:00,
2013-05-10 22:22:00,60.1,55.9,29.94,SSE,165,0.0,2.0,86,0.00,,,0.00,0.0,meteohub,2013-05-11 02:22:00,
2013-05-10 22:27:00,60.1,56.1,29.94,SSE,165,1.0,1.0,87,0.00,,,0.00,0.0,meteohub,2013-05-11 02:27:00,
2013-05-10 22:32:00,59.7,55.8,29.94,SSE,165,0.0,1.0,87,0.00,,,0.00,0.0,meteohub,2013-05-11 02:32:00,
2013-05-10 22:37:00,59.7,55.8,29.94,SSE,165,0.0,1.0,87,0.00,,,0.00,0.0,meteohub,2013-05-11 02:37:00,
2013-05-10 22:42:00,59.4,55.4,29.93,SSE,165,0.0,1.0,87,0.00,,,0.00,0.0,meteohub,2013-05-11 02:42:00,
2013-05-10 22:47:00,59.4,55.8,29.93,SSE,165,0.0,0.0,88,0.00,,,0.00,0.0,meteohub,2013-05-11 02:47:00,
2013-05-10 22:52:00,59.2,55.4,29.93,SSE,165,0.0,0.0,87,0.00,,,0.00,0.0,meteohub,2013-05-11 02:52:00,
2013-05-10 22:57:00,59.2,55.6,29.93,SSE,165,0.0,0.0,88,0.00,,,0.00,0.0,meteohub,2013-05-11 02:57:00,
2013-05-10 23:02:00,58.8,55.2,29.93,SSE,165,0.0,0.0,88,0.00,,,0.00,0.0,meteohub,2013-05-11 03:02:00,
2013-05-10 23:07:00,58.6,55.4,29.93,SSE,165,0.0,0.0,89,0.00,,,0.00,0.0,meteohub,2013-05-11 03:07:00,
2013-05-10 23:12:00,58.3,55.0,29.93,SSE,165,0.0,0.0,89,0.00,,,0.00,0.0,meteohub,2013-05-11 03:12:00,
2013-05-10 23:17:00,58.3,55.4,29.92,SSE,165,0.0,1.0,90,0.00,,,0.00,0.0,meteohub,2013-05-11 03:17:00,
2013-05-10 23:22:00,58.3,55.4,29.92,SSE,165,0.0,1.0,90,0.00,,,0.00,0.0,meteohub,2013-05-11 03:22:00,
2013-05-10 23:27:00,58.1,55.2,29.92,SSE,165,0.0,1.0,90,0.00,,,0.00,0.0,meteohub,2013-05-11 03:27:00,
2013-05-10 23:32:00,57.9,55.0,29.92,SSE,165,0.0,0.0,90,0.00,,,0.00,0.0,meteohub,2013-05-11 03:32:00,
2013-05-10 23:37:00,57.9,55.2,29.92,SSE,165,0.0,0.0,91,0.00,,,0.00,0.0,meteohub,2013-05-11 03:37:00,
2013-05-10 23:42:00,58.1,55.4,29.92,SSE,165,0.0,0.0,91,0.00,,,0.00,0.0,meteohub,2013-05-11 03:42:00,
2013-05-10 23:47:00,58.3,55.4,29.92,SSE,165,0.0,0.0,90,0.00,,,0.00,0.0,meteohub,2013-05-11 03:47:00,
2013-05-10 23:52:00,58.5,55.6,29.91,SSE,165,0.0,0.0,90,0.00,,,0.00,0.0,meteohub,2013-05-11 03:52:00,
2013-05-10 23:57:00,58.5,55.6,29.91,SSE,165,0.0,0.0,90,0.00,,,0.00,0.0,meteohub,2013-05-11 03:57:00,